Regional Weather Roundup
Issued by NWS

Home | Current Version | Previous Version | Graphics & Text | Print | Product List | Glossary On
Versions: 1 2 3 4 5 6 7 8 9 10 11 12 13 14 15 16 17 18 19 20 21 22 23 24 25 26 27 28 29 30 31 32 33 34 35 36 37 38 39 40 41 42 43 44 45 46 47 48 49 50
000
ASUS43 KDTX 210501
RWRMI
MICHIGAN HOURLY REGIONAL WEATHER ROUNDUP
NATIONAL WEATHER SERVICE DETROIT/PONTIAC MI
100 AM EDT TUE APR 21 2015

NOTE: "FAIR" INDICATES FEW OR NO CLOUDS BELOW 12,000 FEET WITH NO
SIGNIFICANT WEATHER AND/OR OBSTRUCTION TO VISIBILITY.

MIZ047>049-052>055-059>063-066>070-074>076-081>083-210600-
SOUTHEAST LOWER MICHIGAN

CITY           SKY/WX    TMP DP  RH WIND       PRES   REMARKS
ADRIAN         CLOUDY    45  35  68 W13G20    29.62R
ALMA           CLOUDY    41  37  86 SW8       29.53S
ANN ARBOR      CLOUDY    44  35  70 W9        29.58S
BAD AXE        CLOUDY    42  37  84 W14G20    29.50S
CARO           CLOUDY    42  38  86 SW14G23   29.52R
DETROIT CITY   CLOUDY    46  34  62 W13       29.59R
DETROIT        CLOUDY    46  34  62 SW13      29.60R
FLINT          CLOUDY    44  34  67 W12G20    29.56S
GROSSE ILE     CLOUDY    46  37  71 W12       29.59R
HILLSDALE      CLOUDY    44  33  66 W13G18    29.60S
HOWELL         MIX PCPN  42  36  78 SW12      29.56S

CITY           SKY/WX    TMP DP  RH WIND       PRES   REMARKS
JACKSON        CLOUDY    43  33  68 W13       29.58S
LAMBERTVILLE   CLOUDY    46  34  61 W14       29.62S
LANSING        CLOUDY    42  33  70 SW10      29.57R
LAPEER         CLOUDY    42  35  76 W15G23    29.55S
MASON          CLOUDY    42  34  73 SW13G18   29.57S
MONROE         CLOUDY    45  37  76 W8        29.59S
PONTIAC        CLOUDY    42  34  73 W13       29.55S
PORT HOPE        N/A     43  39  86 VRB7      29.47S
PORT HURON     CLOUDY    45  37  76 SW8G17    29.55S
TRI CITIES     CLOUDY    42  37  82 SW13      29.52S
TROY           CLOUDY    45  36  70 W12       29.59S
SAGINAW HB     CLOUDY    41  36  81 SW16G22   29.52S
$$
MIZ043>046-050>051-056>058-064>065-071>073-077>080-210600-
SOUTHWEST LOWER MICHIGAN

CITY           SKY/WX    TMP DP  RH WIND       PRES   REMARKS
BATTLE CREEK   CLOUDY    43  32  65 W13       29.59R
BENTON HARBOR  CLOUDY    42  33  70 SW14      29.60F
BIG RAPIDS     CLOUDY    39  35  85 SW10      29.49S WCI  32
COLDWATER      MOCLDY    42  31  65 W14       29.61R
FREMONT        CLOUDY    39  33  79 SW10      29.52S WCI  32
HOLLAND        CLOUDY    42  33  70 W13       29.57F
GRAND RAPIDS   CLOUDY    41  33  73 W16G22    29.55S
IONIA          CLOUDY    41  36  80 SW13      29.54S
KALAMAZOO      CLOUDY    43  32  65 SW12      29.59F
LUDINGTON      CLOUDY    40  35  82 SW9       29.49F WCI  35
MARSHALL       CLOUDY    41  32  70 SW13      29.59R
MOUNT PLEASANT CLOUDY    40  37  88 SW8       29.51S WCI  34
MUSKEGON       CLOUDY    41  31  67 W13       29.54S
SOUTH HAVEN    CLOUDY    44  32  63 W14G26    29.59S
$$
MIZ016>042-210600-
NORTHERN LOWER MICHIGAN

CITY           SKY/WX    TMP DP  RH WIND       PRES   REMARKS
ALPENA         CLOUDY    39  33  79 SW7       29.42S WCI  34
BEAVER ISLAND  CLOUDY    36  34  93 SW10      29.37S WCI  28
BELLAIRE       MIX PCPN  38  36  90 W7        29.44R WCI  33
CADILLAC       LGT RAIN  36  34  90 W10       29.44S WCI  29
CHARLEVOIX     CLOUDY    37  37  97 SW8       29.43S WCI  31
FRANKFORT      CLOUDY    41  31  67 SW9G17    29.45S
GAYLORD        LGT SNOW  33  33 100 W5        29.40S FOG     WCI  29
GRAYLING       CLOUDY    37  34  89 SW12      29.43S WCI  29
HARBOR SPRINGS RAIN      35  35  98 CALM      29.40S
HOUGHTON LAKE  CLOUDY    39  34  82 SW15      29.45S WCI  31
MANISTEE       CLOUDY    39  30  70 SW9       29.47F WCI  33
OSCODA         CLOUDY    40  36  83 SW10      29.45S WCI  34
PELLSTON       LGT RAIN  37  34  89 SW6       29.39S WCI  32
ROGERS CITY    CLOUDY    37  34  90 W9        29.41S WCI  30
TRAVERSE CITY  CLOUDY    39  35  86 VRB6      29.43S WCI  35
$$
MIZ007>008-015-210600-
EASTERN UPPER MICHIGAN

CITY           SKY/WX    TMP DP  RH WIND       PRES   REMARKS
KINROSS        CLOUDY    36  36 100 SW5       29.35R WCI  32
MACKINAC ISLAN CLOUDY    35  35  99 SW9G20    29.37R WCI  28
NEWBERRY       CLOUDY    34  33  96 SW12      29.33R WCI  26
S. S. MARIE    LGT RAIN  36  34  92 SW7       29.34R WCI  30
$$
MIZ004>006-011>014-085-210600-
CENTRAL UPPER MICHIGAN

CITY           SKY/WX    TMP DP  RH WIND       PRES   REMARKS
MANISTIQUE     CLOUDY    36  35  95 SW5       29.35S WCI  32
ESCANABA       CLOUDY    36  30  80 SW7       29.36S WCI  30
MENOMINEE      CLOUDY    39  28  65 W9G16     29.39S WCI  33
$$
MIZ001>003-009>011-084-210600-
WESTERN UPPER MICHIGAN

CITY           SKY/WX    TMP DP  RH WIND       PRES   REMARKS
IRON MOUNTAIN  CLOUDY    36  29  75 SW8       29.32S WCI  30
HOUGHTON       CLOUDY    33  30  88 W16G26    29.24F WCI  23
COPPER HARBOR    N/A     34  30  85 NW10G24   29.23S WCI  26
IRONWOOD       CLOUDY    32  30  93 W14       29.30S WCI  22
$$

ABBREVIATIONS USED IN REMARKS
   TC - TEMPERATURE IN CELSIUS
  WCI - WIND CHILL INDEX
   HX - HEAT INDEX
  VSB - VISIBILITY



USA.gov is the U.S. government's official web portal to all federal, state and local government web resources and services.